Regional Weather Roundup
Issued by NWS

Home | Current Version | Previous Version | Text Only | Print | Product List | Glossary On
Versions: 1 2 3 4 5 6 7 8 9 10 11 12 13 14 15 16 17 18 19 20 21 22 23 24 25 26 27 28 29 30 31 32 33 34 35 36 37 38 39 40 41 42 43 44 45 46 47 48 49 50
387
ASUS44 KJAN 022103
RWRMS

MISSISSIPPI HOURLY WEATHER ROUNDUP
NATIONAL WEATHER SERVICE JACKSON MS
300 PM CST MON MAR 02 2015

NOTE: "FAIR: INDICATES FEW OR NO CLOUDS BELOW 12,000 FEET WITH NO
SIGNIFICANT WEATHER AND/OR OBSTRUCTIONS TO VISIBILITY.

MSZ001>002-007>008-010>013-018>021-025>028-034>036-022200-
NORTHWEST MISSISSIPPI

CITY           SKY/WX    TMP DP  RH WIND       PRES   REMARKS
CLARKSDALE     CLOUDY    37  37 100 N8        30.35F WCI  31
CLEVELAND      CLOUDY    40  40 100 N10       30.32S WCI  33
GREENWOOD        N/A     45  45 100 NE10      30.30F
GREENVILLE     LGT RAIN  41  38  89 N12       30.31F FOG
OLIVE BRANCH   CLOUDY    39  39 100 NE6       30.34F WCI  35
OXFORD         CLOUDY    39  37  93 NE10      30.34S FOG     WCI  32
TUNICA         MOCLDY    37  36  93 N8        30.37R WCI  31
$$

MSZ003>006-009-014>017-022>024-029>033-037>039-022200-
NORTHEAST MISSISSIPPI

CITY           SKY/WX    TMP DP  RH WIND       PRES   REMARKS
COLUMBUS AFB   CLOUDY    47  47  98 N8        30.30S
CORINTH        LGT RAIN  45  37  76 CALM      30.33S
GOLDN TRIANGLE CLOUDY    48  45  87 NE8       30.29
STARKVILLE     CLOUDY    46  45  93 N3        30.30S
TUPELO         CLOUDY    44  40  85 NE9       30.33S
$$

MSZ040-058-022200-
CENTRAL MISSISSIPPI

CITY           SKY/WX    TMP DP  RH WIND       PRES   REMARKS
JACKSON INTL   CLOUDY    53  53 100 N7        30.25F FOG
JACKSON HAWKNS LGT RAIN  52  51  97 N5        30.25F FOG
MERIDIAN KEY   CLOUDY    58  55  90 NE7       30.25F
MERIDIAN NAS   LGT RAIN  54  52  93 N5        30.28S
VICKSBURG      LGT RAIN  45  43  93 N6        30.28S FOG
$$

MSZ059>079-022200-
SOUTH MISSISSIPPI

CITY           SKY/WX    TMP DP  RH WIND       PRES   REMARKS
BROOKHAVEN     CLOUDY    57  57 100 CALM      30.24S
HATTIESBURG    LGT RAIN  63  61  93 CALM      30.25S FOG
MCCOMB         RAIN      63  62  97 CALM      30.22S FOG
NATCHEZ        CLOUDY    46  45  93 N6        30.25F
PINE BELT      CLOUDY    61  57  88 E3        30.25S
$$

MSZ080>082-022200-
COASTAL MISSISSIPPI

CITY           SKY/WX    TMP DP  RH WIND       PRES   REMARKS
BAY ST LOUIS   CLOUDY    66  63  88 CALM      30.22  FOG
BILOXI         CLOUDY    65  65 100 SE6       30.21F
PASCAGOULA     LGT RAIN  68  65  90 SE8       30.22S
GULFPORT       FOG       65  64  97 SE3       30.21F VSB 1/2
$$



USA.gov is the U.S. government's official web portal to all federal, state and local government web resources and services.